FW2422 Weather Reports


Display with metric or nautical units.
time (UTC)temp
F
wind
direction
speed
MPH
gust
MPH
rain 1hr
in
rain 24hr
in
rain mn
in
humidity
%
barometer
mb
20260507120005 0 0.0 0.0 0.00 0.01 0.00 1020.4
20260507114602 0 0.0 0.0 0.00 0.01 0.00 1020.3
20260507113054 0 0.0 0.0 0.00 0.01 0.00 1019.9
20260507111549 0 0.0 0.0 0.00 0.01 0.00 1019.8
20260507110100 0 0.0 0.0 0.00 0.01 0.00 1019.7
20260507104541 0 0.0 0.0 0.00 0.01 0.00 1019.0
20260507094515 53 10 0.0 0.0 0.00 0.01 0.00 89 1018.3
20260507093014 53 11 0.0 0.0 0.00 0.01 0.00 89 1018.3
20260507091511 53 11 0.0 0.0 0.00 0.01 0.00 88 1018.1
20260507090010 54 10 0.0 0.0 0.00 0.01 0.00 88 1017.8
20260507084506 54 11 0.0 2.0 0.00 0.01 0.00 87 1018.0
20260507083004 55 340 0.0 2.0 0.00 0.01 0.00 86 1017.8
20260507081506 55 13 0.0 2.0 0.00 0.01 0.00 86 1017.9
20260507080100 55 4 0.0 0.0 0.00 0.01 0.00 86 1017.7
20260507074559 56 107 0.0 4.0 0.00 0.01 0.00 85 1017.3
20260507073059 56 99 1.0 6.0 0.00 0.01 0.00 85 1017.2
20260507071558 56 79 0.0 3.0 0.00 0.01 0.00 84 1017.2
20260507070101 56 82 0.0 4.0 0.00 0.01 0.00 83 1017.3
20260507064553 56 38 0.0 4.0 0.00 0.01 0.00 83 1017.4
20260507063052 56 24 0.0 3.0 0.00 0.01 0.00 82 1017.4
20260507061548 57 75 0.0 4.0 0.00 0.01 0.00 81 1017.2
20260507060059 57 73 1.0 7.0 0.00 0.01 0.00 80 1017.2
20260507054547 58 8 0.0 7.0 0.00 0.01 0.00 79 1017.3
20260507053050 58 29 0.0 6.0 0.00 0.01 0.00 78 1017.2
20260507051542 58 103 1.0 5.0 0.00 0.01 0.00 78 1017.4
20260507050042 58 109 0.0 5.0 0.00 0.01 0.00 80 1017.3
20260507044539 59 49 0.0 5.0 0.00 0.01 0.01 79 1017.4
20260507043037 59 350 1.0 7.0 0.00 0.01 0.01 79 1017.5
20260507041539 59 73 0.0 4.0 0.00 0.01 0.01 79 1017.7
20260507040038 59 27 0.0 2.0 0.00 0.01 0.01 80 1017.8
20260507034551 59 46 0.0 2.0 0.00 0.01 0.01 80 1017.7
20260507033041 59 32 0.0 2.0 0.00 0.01 0.01 79 1017.7
20260507031531 59 292 0.0 5.0 0.00 0.01 0.01 79 1017.4
20260507030030 59 354 0.0 6.0 0.00 0.01 0.01 80 1017.2
20260507024546 59 181 0.0 5.0 0.00 0.01 0.01 80 1016.8
20260507023026 59 19 0.0 6.0 0.00 0.01 0.01 81 1016.4
20260507021524 59 333 0.0 5.0 0.00 0.01 0.01 83 1016.3
20260507020024 59 10 0.0 3.0 0.00 0.01 0.01 83 1015.9
20260507014534 59 31 0.0 4.0 0.00 0.01 0.01 83 1015.3
20260507004510 59 96 0.0 3.0 0.00 0.01 0.01 82 1014.8
20260506214520 61 308 0.0 4.0 0.00 0.01 0.01 75 1013.0
20260506213020 61 20 0.0 2.0 0.00 0.01 0.01 75 1013.2
20260506211521 62 349 0.0 5.0 0.00 0.01 0.01 74 1013.4
20260506210017 61 335 0.0 4.0 0.00 0.01 0.01 75 1013.3
20260506204521 61 332 0.0 6.0 0.00 0.01 0.01 75 1013.5
20260506203016 61 8 0.0 4.0 0.00 0.01 0.01 75 1013.6
20260506201523 60 306 0.0 5.0 0.00 0.01 0.01 76 1013.8
20260506200017 60 10 0.0 8.0 0.00 0.01 0.01 76 1014.1
20260506193113 59 308 1.0 3.0 0.00 0.01 0.01 80 1013.7
20260506184547 57 307 0.0 2.0 0.00 0.01 0.01 81 1014.0
20260506163022 58 36 0.0 3.0 0.01 0.01 0.01 80 1013.8
20260506161522 56 30 1.0 4.0 0.00 0.00 0.00 85 1013.9
20260506160018 55 55 0.0 3.0 0.00 0.00 0.00 87 1014.2
20260506154516 55 345 0.0 3.0 0.00 0.00 0.00 86 1014.7
20260506153015 55 307 2.0 5.0 0.00 0.00 0.00 83 1014.0
20260506151513 55 305 0.0 3.0 0.00 0.00 0.00 81 1015.7
20260506150009 55 340 0.0 4.0 0.00 0.00 0.00 82 1014.2
20260506144523 54 346 0.0 7.0 0.00 0.00 0.00 82 1014.2
20260506143009 54 326 0.0 4.0 0.00 0.00 0.00 83 1013.9
20260506141505 54 313 0.0 4.0 0.00 0.00 0.00 83 1013.7
20260506140003 54 312 0.0 5.0 0.00 0.00 0.00 83 1013.4
20260506134601 54 10 1.0 6.0 0.00 0.00 0.00 83 1013.3
20260506133133 55 345 0.0 3.0 0.00 0.00 0.00 82 1013.0
20260506131556 54 28 1.0 7.0 0.00 0.00 0.00 81 1012.7
20260506130136 55 323 2.0 7.0 0.00 0.00 0.00 80 1012.9
20260506124552 0 0.0 0.0 0.00 0.00 0.00 1012.4
20260506123048 0 0.0 0.0 0.00 0.00 0.00 1012.3
20260506121550 0 0.0 0.0 0.00 0.00 0.00 1012.2